Powrót do katalogu

STARLINK-1132

AktywnyŁącznośćVLEO
NORAD 45044·PAYLOAD·🇺🇸 United States

Wystrzelony Jan 29, 2020 z Cape Canaveral Space Force Station

Loading…

Następne Przeloty (najbliższe 24 godziny)

TLE

ŚwieżeSource: CelesTrak SupGP

Epoka: Sep 14, 2026, 14:06 UTC

1 45044C 20006A   26257.58798611  .00021777  00000+0  15647-3 0  2578
2 45044  53.1460  59.1876 0000748 242.3762 303.4814 15.72943935    11

Śledź STARLINK-1132 w czasie rzeczywistym z AllMySat

Download on the App Store